When you browse on this site, cookies collect data to enhance your experience and personalize the content and advertising you see.
Visit our Privacy Policy to learn more. By continuing to use the site, you agree to this use of cookies and data.
  • In Switzerland
  • List of Countries
  • For 7 days
  • Water Temperature
  • Satellite Maps
  • Weather Map
  • Weather Widgets
  • user-avatar
    Login

    Hourly Weather Mieleszynek

    Today, 20 February, Wednesday

    Time Temperature Precipitation Wind Pressure Humidity
    00:00 +3°C° 0 mm 5 mps 747 mmHg 88%
    01:00 +3°C° 0 mm 4 mps 747 mmHg 85%
    02:00 +2°C° 0 mm 5 mps 747 mmHg 86%
    03:00 +2°C° 0 mm 5 mps 747 mmHg 87%
    04:00 +1°C° 0 mm 5 mps 747 mmHg 89%
    05:00 +1°C° 0 mm 5 mps 748 mmHg 89%
    06:00 +1°C° 0 mm 5 mps 748 mmHg 90%
    07:00 +1°C° 0 mm 5 mps 748 mmHg 91%
    08:00 +2°C° 0 mm 5 mps 748 mmHg 88%
    09:00 +2°C° 0 mm 6 mps 749 mmHg 85%
    10:00 +3°C° 0 mm 6 mps 749 mmHg 82%
    11:00 +3°C° 0 mm 6 mps 749 mmHg 79%
    12:00 +3°C° 0 mm 6 mps 750 mmHg 76%
    13:00 +4°C° 0 mm 6 mps 750 mmHg 74%
    14:00 +4°C° 0 mm 6 mps 750 mmHg 72%
    15:00 +5°C° 0 mm 5 mps 750 mmHg 71%
    16:00 +5°C° 0 mm 5 mps 750 mmHg 70%
    17:00 +5°C° 0 mm 4 mps 751 mmHg 73%
    18:00 +4°C° 0 mm 3 mps 751 mmHg 76%
    19:00 +4°C° 0 mm 3 mps 751 mmHg 79%
    20:00 +4°C° 0 mm 3 mps 751 mmHg 81%
    21:00 +4°C° 0 mm 3 mps 752 mmHg 83%
    22:00 +5°C° 0 mm 2 mps 752 mmHg 84%
    23:00 +4°C° 0 mm 3 mps 752 mmHg 85%

    Tomorrow, 21 February, Thursday

    Time Temperature Precipitation Wind Pressure Humidity
    00:00 +4°C° 0 mm 3 mps 752 mmHg 85%
    01:00 +4°C° 0 mm 3 mps 753 mmHg 86%
    02:00 +4°C° 0 mm 3 mps 753 mmHg 87%
    03:00 +4°C° 0 mm 3 mps 752 mmHg 88%
    04:00 +4°C° 0 mm 3 mps 752 mmHg 88%
    05:00 +3°C° 0 mm 4 mps 752 mmHg 87%
    06:00 +3°C° 0 mm 4 mps 752 mmHg 86%
    07:00 +3°C° 0 mm 4 mps 752 mmHg 84%
    08:00 +3°C° 0.1 mm 4 mps 752 mmHg 83%
    09:00 +2°C° 0.1 mm 5 mps 752 mmHg 81%
    10:00 +3°C° 0.1 mm 5 mps 752 mmHg 80%
    11:00 +3°C° 0.4 mm 5 mps 752 mmHg 79%
    12:00 +4°C° 0.4 mm 6 mps 751 mmHg 78%
    13:00 +4°C° 0.4 mm 6 mps 751 mmHg 78%
    14:00 +4°C° 0.8 mm 6 mps 751 mmHg 79%
    15:00 +4°C° 0.8 mm 6 mps 751 mmHg 81%
    16:00 +4°C° 0.8 mm 6 mps 750 mmHg 83%
    17:00 +4°C° 0.6 mm 6 mps 750 mmHg 84%
    18:00 +4°C° 0.6 mm 6 mps 750 mmHg 86%
    19:00 +4°C° 0.6 mm 6 mps 750 mmHg 87%
    20:00 +4°C° 0.5 mm 6 mps 750 mmHg 88%
    21:00 +4°C° 0.5 mm 6 mps 749 mmHg 89%
    22:00 +5°C° 0.5 mm 6 mps 749 mmHg 90%
    23:00 +5°C° 0.8 mm 7 mps 749 mmHg 90%

    Day after tomorrow, 22 February, Friday

    Time Temperature Precipitation Wind Pressure Humidity
    00:00 +5°C° 0.8 mm 7 mps 749 mmHg 90%
    01:00 +5°C° 0.8 mm 7 mps 749 mmHg 90%
    02:00 +5°C° 0.3 mm 7 mps 749 mmHg 90%
    03:00 +5°C° 0.3 mm 7 mps 749 mmHg 90%
    04:00 +5°C° 0.3 mm 7 mps 750 mmHg 90%
    05:00 +3°C° 0.4 mm 7 mps 750 mmHg 88%
    06:00 +1°C° 0.4 mm 8 mps 751 mmHg 86%
    07:00 0°C° 0.4 mm 8 mps 752 mmHg 85%
    08:00 -1°C° 0 mm 8 mps 754 mmHg 79%
    09:00 -1°C° 0 mm 7 mps 755 mmHg 74%
    10:00 -2°C° 0 mm 7 mps 756 mmHg 68%
    11:00 -2°C° 0 mm 7 mps 757 mmHg 63%
    12:00 -1°C° 0 mm 6 mps 758 mmHg 58%
    13:00 -1°C° 0 mm 6 mps 759 mmHg 53%
    14:00 -1°C° 0 mm 6 mps 760 mmHg 51%
    15:00 -2°C° 0 mm 6 mps 760 mmHg 49%
    16:00 -2°C° 0 mm 6 mps 761 mmHg 47%
    17:00 -2°C° 0 mm 5 mps 761 mmHg 49%
    18:00 -2°C° 0 mm 5 mps 762 mmHg 51%
    19:00 -3°C° 0 mm 4 mps 763 mmHg 54%
    20:00 -3°C° 0 mm 4 mps 763 mmHg 53%
    21:00 -4°C° 0 mm 4 mps 764 mmHg 53%
    22:00 -4°C° 0 mm 4 mps 764 mmHg 53%
    23:00 -4°C° 0 mm 4 mps 764 mmHg 51%

    23 February, Saturday

    Time Temperature Precipitation Wind Pressure Humidity
    00:00 -4°C° 0 mm 4 mps 765 mmHg 49%
    01:00 -5°C° 0 mm 4 mps 765 mmHg 46%
    02:00 -5°C° 0 mm 4 mps 765 mmHg 44%
    03:00 -5°C° 0 mm 3 mps 764 mmHg 42%
    04:00 -5°C° 0 mm 3 mps 764 mmHg 40%
    05:00 -5°C° 0 mm 3 mps 765 mmHg 39%
    06:00 -5°C° 0 mm 3 mps 765 mmHg 38%
    07:00 -5°C° 0 mm 3 mps 765 mmHg 38%
    08:00 -5°C° 0 mm 3 mps 766 mmHg 35%
    09:00 -5°C° 0 mm 3 mps 766 mmHg 33%
    10:00 -4°C° 0 mm 3 mps 766 mmHg 31%
    11:00 -2°C° 0 mm 3 mps 766 mmHg 29%
    12:00 -2°C° 0 mm 2 mps 766 mmHg 27%
    13:00 -1°C° 0 mm 2 mps 765 mmHg 25%
    14:00 -1°C° 0 mm 2 mps 765 mmHg 26%
    15:00 -1°C° 0 mm 2 mps 765 mmHg 27%
    16:00 -1°C° 0 mm 2 mps 765 mmHg 28%
    17:00 -2°C° 0 mm 2 mps 765 mmHg 31%
    18:00 -1°C° 0 mm 1 mps 765 mmHg 34%
    19:00 -1°C° 0 mm 1 mps 765 mmHg 37%
    20:00 -1°C° 0 mm 1 mps 765 mmHg 37%
    21:00 -1°C° 0 mm 1 mps 765 mmHg 37%
    22:00 -2°C° 0 mm 0 mps 765 mmHg 37%
    23:00 -2°C° 0 mm 0 mps 765 mmHg 36%

    24 February, Sunday

    Time Temperature Precipitation Wind Pressure Humidity
    00:00 -2°C° 0 mm 0 mps 764 mmHg 35%
    01:00 -1°C° 0 mm 0 mps 764 mmHg 34%
    02:00 -1°C° 0 mm 0 mps 764 mmHg 33%
    03:00 -1°C° 0 mm 0 mps 764 mmHg 33%
    04:00 -1°C° 0 mm 0 mps 764 mmHg 33%
    05:00 -1°C° 0 mm 0 mps 764 mmHg 34%
    06:00 -1°C° 0 mm 1 mps 763 mmHg 35%
    07:00 -1°C° 0 mm 1 mps 763 mmHg 36%
    08:00 0°C° 0 mm 1 mps 763 mmHg 33%
    09:00 +1°C° 0 mm 1 mps 763 mmHg 30%
    10:00 +2°C° 0 mm 1 mps 763 mmHg 26%
    11:00 +3°C° 0 mm 1 mps 763 mmHg 27%
    12:00 +2°C° 0 mm 2 mps 763 mmHg 27%
    13:00 +3°C° 0 mm 2 mps 762 mmHg 27%
    14:00 +3°C° 0 mm 2 mps 762 mmHg 32%
    15:00 +4°C° 0 mm 1 mps 762 mmHg 37%
    16:00 +4°C° 0 mm 1 mps 762 mmHg 42%
    17:00 +3°C° 0 mm 1 mps 762 mmHg 45%
    18:00 +2°C° 0 mm 1 mps 762 mmHg 47%
    19:00 +1°C° 0 mm 1 mps 762 mmHg 50%
    20:00 +1°C° 0 mm 1 mps 762 mmHg 51%
    21:00 +1°C° 0 mm 1 mps 762 mmHg 52%
    22:00 0°C° 0 mm 1 mps 762 mmHg 53%
    23:00 0°C° 0 mm 1 mps 762 mmHg 54%

    25 February, Monday

    Time Temperature Precipitation Wind Pressure Humidity
    00:00 0°C° 0 mm 1 mps 762 mmHg 55%
    01:00 -2°C° 0 mm 2 mps 762 mmHg 55%
    02:00 -2°C° 0 mm 2 mps 762 mmHg 55%
    03:00 -1°C° 0 mm 2 mps 762 mmHg 55%
    04:00 -1°C° 0 mm 2 mps 762 mmHg 55%
    05:00 -1°C° 0 mm 2 mps 762 mmHg 56%
    06:00 -2°C° 0 mm 2 mps 762 mmHg 58%
    07:00 -2°C° 0 mm 2 mps 761 mmHg 59%
    08:00 -1°C° 0 mm 3 mps 761 mmHg 57%
    09:00 +1°C° 0 mm 3 mps 761 mmHg 56%
    10:00 +2°C° 0 mm 3 mps 761 mmHg 54%
    11:00 +3°C° 0 mm 4 mps 761 mmHg 55%
    12:00 +4°C° 0 mm 4 mps 761 mmHg 56%
    13:00 +5°C° 0 mm 4 mps 761 mmHg 57%
    14:00 +5°C° 0 mm 4 mps 760 mmHg 63%
    15:00 +5°C° 0 mm 4 mps 760 mmHg 69%
    16:00 +5°C° 0 mm 3 mps 760 mmHg 74%
    17:00 +4°C° 0 mm 3 mps 760 mmHg 79%
    18:00 +3°C° 0 mm 3 mps 761 mmHg 83%
    19:00 +2°C° 0 mm 3 mps 761 mmHg 88%
    20:00 +2°C° 0 mm 3 mps 761 mmHg 87%
    21:00 +1°C° 0 mm 3 mps 761 mmHg 85%
    22:00 +1°C° 0 mm 3 mps 761 mmHg 84%
    23:00 0°C° 0 mm 3 mps 761 mmHg 85%
    Show more